Weather History for Nice, France

Change the Weather History Date:

Wednesday, August 7, 2013

  Actual Average Record
Temperature  
Mean Temperature 79 °F -  
Max Temperature 84 °F 79 °F 91 °F (2003)
Min Temperature 74 °F 66 °F 66 °F (2000)
Cooling Degree Days 14    
Growing Degree Days 29 (Base 50)    
Moisture  
Dew Point 71 °F    
Average Humidity 74    
Maximum Humidity 89    
Minimum Humidity 58    
Precipitation  
Precipitation 0.00 in 0.05 in - ()
Sea Level Pressure  
Sea Level Pressure 29.87 in    
Wind  
Wind Speed 8 mph ()    
Max Wind Speed 21 mph    
Max Gust Speed -    
Visibility 7.1 miles    
Events      
Averages and records for this station are not official NWS values.
T = Trace of Precipitation, MM = Missing Value Source: Averaged Metar Reports

Daily Weather History Graph

Daily Weather History Graph

Search for Another Location

Airport:

Trip Planner

Search our weather history database for the weather conditions in past years. The results will help you decide how hot, cold, wet, or windy it might be!

Date:

Astronomy

Aug. 07, 2013 Rise Set
Actual Time 6:26 AM CEST 8:46 PM CEST
Civil Twilight 5:54 AM CEST 9:18 PM CEST
Nautical Twilight 5:15 AM CEST 9:57 PM CEST
Astronomical Twilight 4:30 AM CEST 10:41 PM CEST
Moon 7:02 AM CEST (8/7) 8:40 PM CEST (8/7)
Length of Visible Light 15h 23m
Length of Day
14h 19m
New Moon, 0% of the Moon is Illuminated
Aug 7
New Moon
Aug 14
First Quarter
Aug 21
Full
Aug 28
Last Quarter
Sep 5
New

Hourly Weather History & Observations

Time (CEST) Temp. Heat Index Dew Point Humidity Pressure Visibility Wind Dir Wind Speed Gust Speed Precip Events Conditions
12:00 AM 75.2 °F - 71.6 °F 89% 29.92 in 6.2 mi West 4.6 mph - N/A   Mostly Cloudy
12:30 AM 77.0 °F - 71.6 °F 83% 29.92 in 6.2 mi West 3.5 mph - N/A   Mostly Cloudy
1:00 AM 77.0 °F - 71.6 °F 83% 29.92 in 6.2 mi West 4.6 mph - N/A   Mostly Cloudy
1:30 AM 77.0 °F - 69.8 °F 78% 29.92 in 6.2 mi NNW 4.6 mph - N/A   Mostly Cloudy
2:00 AM 77 °F - 70 °F 73% 29.92 in 19 mi North 3.5 mph - -   Scattered Clouds
2:30 AM 77.0 °F - 69.8 °F 78% 29.92 in 6.2 mi NNW 4.6 mph - N/A   Mostly Cloudy
3:00 AM 75.2 °F - 68.0 °F 78% 29.89 in 6.2 mi NNE 9.2 mph - N/A   Mostly Cloudy
3:30 AM 75.2 °F - 68.0 °F 78% 29.89 in 6.2 mi NNE 9.2 mph - N/A   Mostly Cloudy
4:00 AM 75.2 °F - 64.4 °F 69% 29.86 in 6.2 mi NNE 8.1 mph - N/A   Mostly Cloudy
4:30 AM 77.0 °F - 66.2 °F 69% 29.86 in 6.2 mi North 3.5 mph - N/A   Mostly Cloudy
5:00 AM 77.0 °F - 66.2 °F 69% 29.89 in 6.2 mi NNE 2.3 mph - N/A   Mostly Cloudy
5:30 AM 77.0 °F - 68.0 °F 74% 29.86 in 6.2 mi NE 6.9 mph - N/A   Mostly Cloudy
6:00 AM 77.0 °F - 71.6 °F 83% 29.86 in 6.2 mi NE 8.1 mph - N/A   Mostly Cloudy
6:30 AM 75.2 °F - 66.2 °F 73% 29.86 in 6.2 mi NNE 4.6 mph - N/A   Mostly Cloudy
7:00 AM 77.0 °F - 66.2 °F 69% 29.86 in 6.2 mi NNE 5.8 mph - N/A   Mostly Cloudy
7:30 AM 75.2 °F - 66.2 °F 73% 29.86 in 6.2 mi NNE 5.8 mph - N/A   Mostly Cloudy
8:00 AM 77 °F - 65 °F 58% 29.89 in 19 mi NNW 5.8 mph - -   Partly Cloudy
8:00 AM 77.0 °F - 64.4 °F 65% 29.89 in 6.2 mi North 5.8 mph - N/A   Scattered Clouds
8:30 AM 77.0 °F - 64.4 °F 65% 29.89 in 6.2 mi NNW 6.9 mph - N/A   Scattered Clouds
9:00 AM 77.0 °F - 62.6 °F 61% 29.89 in 6.2 mi NNW 6.9 mph - N/A   Mostly Cloudy
9:30 AM 80.6 °F 82.3 °F 64.4 °F 58% 29.89 in - NNE 4.6 mph - N/A   Clear
10:00 AM 80.6 °F 82.7 °F 66.2 °F 61% 29.89 in - NE 6.9 mph - N/A   Clear
10:30 AM 80.6 °F 82.7 °F 66.2 °F 61% 29.89 in - NE 5.8 mph - N/A   Clear
11:00 AM 80.6 °F 82.7 °F 66.2 °F 61% 29.89 in 6.2 mi East 12.7 mph - N/A   Mostly Cloudy
11:30 AM 80.6 °F 83.9 °F 69.8 °F 70% 29.89 in 6.2 mi ENE 13.8 mph - N/A   Mostly Cloudy
12:00 PM 82.4 °F 87.2 °F 71.6 °F 70% 29.89 in 6.2 mi East 16.1 mph - N/A   Mostly Cloudy
12:30 PM 82.4 °F 87.2 °F 71.6 °F 70% 29.89 in 6.2 mi East 17.3 mph - N/A   Mostly Cloudy
1:00 PM 84.2 °F 89.6 °F 71.6 °F 66% 29.89 in 6.2 mi East 17.3 mph - N/A   Mostly Cloudy
1:30 PM 84.2 °F 90.9 °F 73.4 °F 70% 29.89 in 6.2 mi East 19.6 mph - N/A   Mostly Cloudy
2:00 PM 84 °F - 74 °F 64% 29.88 in 16 mi East 17.3 mph - -   Scattered Clouds
2:00 PM 84.2 °F 90.9 °F 73.4 °F 70% 29.89 in 6.2 mi East 18.4 mph - N/A   Mostly Cloudy
2:30 PM 82.4 °F 88.2 °F 73.4 °F 74% 29.89 in 6.2 mi East 18.4 mph - N/A   Mostly Cloudy
3:00 PM 82.4 °F 88.2 °F 73.4 °F 74% 29.89 in 6.2 mi East 16.1 mph - N/A   Mostly Cloudy
3:30 PM 82.4 °F 89.5 °F 75.2 °F 79% 29.86 in 6.2 mi East 18.4 mph - N/A   Mostly Cloudy
4:00 PM 82.4 °F 89.5 °F 75.2 °F 79% 29.89 in 6.2 mi ENE 13.8 mph - N/A   Mostly Cloudy
4:30 PM 84.2 °F 92.3 °F 75.2 °F 74% 29.86 in 6.2 mi ENE 15.0 mph - N/A   Mostly Cloudy
5:00 PM 82.4 °F 89.5 °F 75.2 °F 79% 29.86 in 6.2 mi East 20.7 mph - N/A   Mostly Cloudy
5:38 PM 82.4 °F 88.2 °F 73.4 °F 74% 29.86 in 6.2 mi ENE 16.1 mph - N/A   Mostly Cloudy
6:30 PM 82.4 °F 88.2 °F 73.4 °F 74% 29.83 in 6.2 mi East 11.5 mph - N/A   Mostly Cloudy
7:00 PM 80.6 °F 86.2 °F 75.2 °F 84% 29.83 in 6.2 mi East 11.5 mph - N/A   Mostly Cloudy
7:30 PM 80.6 °F 86.2 °F 75.2 °F 84% 29.83 in 6.2 mi East 11.5 mph - N/A   Mostly Cloudy
8:00 PM 81 °F - 73 °F 70% 29.83 in 12 mi East 9.2 mph - -   Scattered Clouds
8:00 PM 80.6 °F 85.4 °F 73.4 °F 79% 29.83 in 6.2 mi East 9.2 mph - N/A   Mostly Cloudy
8:30 PM 80.6 °F 86.2 °F 75.2 °F 84% 29.83 in 6.2 mi East 11.5 mph - N/A   Mostly Cloudy
9:00 PM 80.6 °F 86.2 °F 75.2 °F 84% 29.83 in 6.2 mi East 12.7 mph - N/A   Mostly Cloudy
9:30 PM 78.8 °F - 75.2 °F 89% 29.83 in 6.2 mi East 17.3 mph - N/A   Mostly Cloudy
10:00 PM 78.8 °F - 75.2 °F 89% 29.83 in 6.2 mi East 15.0 mph - N/A   Mostly Cloudy
10:30 PM 78.8 °F - 75.2 °F 89% 29.86 in 6.2 mi East 15.0 mph - N/A   Mostly Cloudy
11:00 PM 78.8 °F - 75.2 °F 89% 29.86 in 6.2 mi ENE 13.8 mph - N/A   Mostly Cloudy